Aeroporto :







RITROVATECI SU...

 
LOGIN :

Iscrizione | Disclaimer

   EN    FR    IT 

 









Sommario :    VFR   VFR Marginale   IFR   IFR Intensivo   IFR Molto Intensivo
Visibilità : 
Base nubi : 
>= 8 km
>= 3000ft
5 / 8 km
1000 / 3000 ft
1500m / 5 km
500 / 1000 ft
800 / 1500m
200 / 500 ft
< 800m
< 200 ft
Simboli :   Temporali  Nebbia  Neve Forte  Precipitazioni Forti  Vento > 20 kt






- Altitudine del aeroporto : 48 ft
- Codice IATA : REK


BIRK - Reykjavik

ULTIMO METAR :
  • 281100Z 20008KT 9999 SCT042 02/M03 Q1049

METARs OBSOLETI :
  • 281000Z 16004KT 9999 SCT041 01/M05 Q1049
  • 280900Z VRB02KT 9999 BKN043 M01/M06 Q1049

TAF TAF BIRK
Valido dal 28 a 09 ore il 29 a 09 ore UTC


280754Z 2809/2909 27005KT 9999 SCT040 TX05/2909Z TNM01/2809Z
BECMG 2809/2811 26015KT CAVOK
BECMG 2818/2821 9999 -SHRA BKN025
BECMG 2822/2900 4500 DZRA BKN012



MetMap, La meteo Aeronautica in un colpo d'occhio ! - Copyright ORBIFLY Dicembre 2007 - Disclaimer

ORBIFLY MET'MAP TEAM :

Programmazione e sviluppo : Alexandra Zaïnal
Concezione : Baudouin d'Aumeries
Aiuto per la programmazione : Marc-Olivier Méhu
Supporto tecnico e logistico : Manuel Goepfert
Aiuto per la traduzione : Arnaldo La Scala

Contatto : metmap@orbifly.com




FONTI E CREDITI :

   NOAA